sat.trackr.live / text

‹ back to catalog

2025-108B

NORAD 64088 · 2025-108B

PAYLOAD ACTIVE UNKNOWN

§ Identity

Operator
Country
PRC
Launch date
2025-05-21
Launch site
JSC
Launch vehicle
Mass (kg)
RCS (m²)

External: N2YO · Heavens-Above · Gunter

§ Orbital elements

Epoch: 2026-09-21T22:47:43.332576Z

Period
94.75 min
Inclination
97.4657°
Eccentricity
0.0008319
Mean motion
15.19766684 rev/d
Perigee alt
500.8 km
Apogee alt
512.3 km
Semi-major
6,884.7 km
B*
2.5234e-4
RAAN
339.6727°
Arg perigee
44.0043°
Mean anomaly
316.1853°
Rev number
7,405

§ Raw data

2025-108B1 64088U 25108B   26264.94980709  .00005334  00000+0  25234-3 0  99912 64088  97.4657 339.6727 0008319  44.0043 316.1853 15.19766684 74055

JSON: /api/v1/satellites/64088 · /tle

For live sub-satellite position, see the globe view (requires WebGL).

§ Visibility from observer

Set your observer location to see the next 7 days of passes ≥ 10°. The values pass through the URL so the page stays shareable.

No JS? Fill the form by hand. The geolocation button needs JavaScript.